* Astronomy

Members Login
Username 
 
Password 
    Remember Me  
Post Info TOPIC: Asteroid 2015 XK351


L

Posts: 131433
Date:
RE: Asteroid 2015 XK351
Permalink  
 


Asteroid 2015 XK351 will make a close approach (0.073 AU) at 11:00 ±00:01 UT, 21st January 2018.



__________________


L

Posts: 131433
Date:
Permalink  
 

Orbital elements:
2015 XK351                                          PHA, Earth MOID = 0.0433 AU
Epoch 2016 Jan. 13.0 TT = JDT 2457400.5                 MPC
M 338.18123              (2000.0)            P               Q
n   0.50531899     Peri.   68.46391     -0.89828939     +0.41576580
a   1.5610817      Node   135.76547     -0.43910336     -0.86135628
e   0.5653464      Incl.   11.76002     +0.01626060     -0.29189750
P   1.95           H   20.4           G   0.15           U   9

MPEC 2015 - X158



__________________
Page 1 of 1  sorted by
 
Quick Reply

Please log in to post quick replies.



Create your own FREE Forum
Report Abuse
Powered by ActiveBoard